DMPUA EDNC-EDGV

Flight info

Callsign DMPUA
Flight time N/A
Altitude 3000
Route DCT
Aircraft JMB/L-JMBAIRCRAFTVL3/7000

Departure

Time 2026-04-13 16:33
Airport Beilngries Airfield (EDNC)

Arrival

Time N/A
Airport EDGV
Time Latitude Longitude Altitude Speed Heading
2026-04-13 16:15 49.02142 11.48137 1214 ft 0 kts 346°
2026-04-13 16:24 49.02142 11.48161 1214 ft 10 kts 93°
2026-04-13 16:24 49.02117 11.48322 1215 ft 19 kts 106°
2026-04-13 16:24 49.02080 11.48479 1214 ft 9 kts 113°
2026-04-13 16:24 49.02079 11.48484 1214 ft 0 kts 98°
2026-04-13 16:28 49.02079 11.48485 1214 ft 0 kts 97°
2026-04-13 16:32 49.02079 11.48530 1214 ft 19 kts 89°
2026-04-13 16:33 49.02083 11.48765 1214 ft 9 kts 16°
2026-04-13 16:33 49.02161 11.48196 1288 ft 103 kts 285°
2026-04-13 16:33 49.02314 11.47123 1689 ft 97 kts 284°
2026-04-13 16:33 49.02508 11.46185 2142 ft 93 kts 288°
2026-04-13 16:34 49.02699 11.45244 2587 ft 92 kts 288°
2026-04-13 16:34 49.02893 11.44332 3045 ft 89 kts 284°
2026-04-13 16:34 49.03130 11.43438 3383 ft 95 kts 302°
2026-04-13 16:34 49.03630 11.42793 3582 ft 101 kts 340°
2026-04-13 16:35 49.04319 11.42507 3744 ft 102 kts 343°
2026-04-13 16:35 49.04975 11.42165 3899 ft 96 kts 335°
2026-04-13 16:35 49.05570 11.41717 3978 ft 95 kts 330°
2026-04-13 16:35 49.06120 11.41269 4210 ft 87 kts 331°
2026-04-13 16:36 49.06647 11.40849 4473 ft 84 kts 332°
2026-04-13 16:36 49.07194 11.40487 4647 ft 91 kts 337°
2026-04-13 16:36 49.07783 11.40113 4759 ft 92 kts 336°
2026-04-13 16:36 49.08342 11.39765 4850 ft 84 kts 335°
2026-04-13 16:37 49.08860 11.39399 4959 ft 82 kts 333°
2026-04-13 16:37 49.09377 11.39037 5085 ft 81 kts 335°
2026-04-13 16:37 49.09891 11.38692 5227 ft 81 kts 334°
2026-04-13 16:37 49.10395 11.38288 5280 ft 85 kts 333°
2026-04-13 16:38 49.10941 11.37901 5291 ft 87 kts 334°
2026-04-13 16:38 49.11494 11.37528 5323 ft 86 kts 336°
2026-04-13 16:38 49.12037 11.37166 5395 ft 84 kts 335°
2026-04-13 16:38 49.12575 11.36809 5459 ft 85 kts 333°
2026-04-13 16:39 49.13089 11.36408 5537 ft 83 kts 332°
2026-04-13 16:39 49.13620 11.36029 5578 ft 87 kts 333°
2026-04-13 16:39 49.14177 11.35625 5181 ft 91 kts 334°
2026-04-13 16:39 49.14765 11.35212 4748 ft 103 kts 334°
2026-04-13 16:40 49.15442 11.34764 4927 ft 101 kts 336°
2026-04-13 16:40 49.16080 11.34352 5255 ft 99 kts 335°
2026-04-13 16:40 49.16706 11.33915 5576 ft 99 kts 333°
2026-04-13 16:40 49.17330 11.33463 5881 ft 99 kts 335°
2026-04-13 16:41 49.17988 11.33099 6150 ft 101 kts 343°
2026-04-13 16:41 49.18660 11.32757 6392 ft 101 kts 336°
2026-04-13 16:41 49.19310 11.32351 6615 ft 103 kts 337°
2026-04-13 16:41 49.19986 11.31959 6792 ft 105 kts 338°
2026-04-13 16:42 49.20676 11.31563 6906 ft 106 kts 337°
2026-04-13 16:42 49.21354 11.31128 6984 ft 107 kts 336°
2026-04-13 16:42 49.22043 11.30707 7073 ft 106 kts 339°
2026-04-13 16:42 49.22729 11.30296 7177 ft 105 kts 335°
2026-04-13 16:43 49.23409 11.29858 7256 ft 107 kts 338°
2026-04-13 16:43 49.24113 11.29466 7253 ft 109 kts 339°
2026-04-13 16:43 49.24827 11.29073 7260 ft 109 kts 337°
2026-04-13 16:43 49.25519 11.28611 7278 ft 108 kts 333°
2026-04-13 16:44 49.26191 11.28110 7329 ft 107 kts 333°
2026-04-13 16:44 49.26855 11.27623 7403 ft 106 kts 333°
2026-04-13 16:44 49.27515 11.27119 7494 ft 106 kts 332°
2026-04-13 16:44 49.28157 11.26577 7594 ft 105 kts 328°
2026-04-13 16:45 49.28774 11.25969 7697 ft 105 kts 324°
2026-04-13 16:45 49.29353 11.25303 7801 ft 105 kts 321°
2026-04-13 16:45 49.29935 11.24626 7907 ft 105 kts 322°
2026-04-13 16:45 49.30516 11.23949 7999 ft 105 kts 321°
2026-04-13 16:46 49.31097 11.23266 8082 ft 106 kts 328°
2026-04-13 16:46 49.31765 11.22736 8091 ft 108 kts 333°
2026-04-13 16:46 49.32431 11.22228 8119 ft 107 kts 332°
2026-04-13 16:46 49.33095 11.21697 8162 ft 107 kts 330°
2026-04-13 16:47 49.33740 11.21127 8214 ft 107 kts 328°
2026-04-13 16:47 49.34435 11.20647 8123 ft 111 kts 337°
2026-04-13 16:47 49.35152 11.20208 7973 ft 114 kts 337°
2026-04-13 16:47 49.35900 11.19755 7684 ft 115 kts 338°
2026-04-13 16:48 49.36632 11.19313 7377 ft 102 kts 338°
2026-04-13 16:48 49.37272 11.18965 6870 ft 94 kts 340°
2026-04-13 16:48 49.37878 11.18680 6502 ft 89 kts 343°
2026-04-13 16:48 49.38466 11.18448 6199 ft 86 kts 345°
2026-04-13 16:49 49.39040 11.18219 5906 ft 85 kts 340°
2026-04-13 16:49 49.39593 11.17880 5588 ft 85 kts 336°
2026-04-13 16:49 49.40135 11.17524 5272 ft 85 kts 335°
2026-04-13 16:49 49.40672 11.17187 5006 ft 83 kts 339°
2026-04-13 16:50 49.41211 11.16933 4795 ft 79 kts 343°
2026-04-13 16:50 49.41734 11.16709 4596 ft 78 kts 335°
2026-04-13 16:50 49.42195 11.16279 4383 ft 75 kts 325°
2026-04-13 16:50 49.42658 11.15860 4124 ft 78 kts 328°
2026-04-13 16:51 49.43132 11.15467 3918 ft 76 kts 333°
2026-04-13 16:51 49.43606 11.15140 3739 ft 74 kts 335°
2026-04-13 16:51 49.44076 11.14812 3543 ft 75 kts 335°
2026-04-13 16:51 49.44575 11.14492 3262 ft 79 kts 337°
2026-04-13 16:52 49.45089 11.14185 3008 ft 78 kts 338°
2026-04-13 16:52 49.45600 11.13901 2727 ft 80 kts 339°
2026-04-13 16:52 49.46126 11.13609 2415 ft 81 kts 333°
2026-04-13 16:52 49.46561 11.13111 2207 ft 74 kts 312°
2026-04-13 16:53 49.46925 11.12586 2060 ft 70 kts 318°
2026-04-13 16:53 49.47334 11.12204 1885 ft 71 kts 335°
2026-04-13 16:53 49.47810 11.11956 1705 ft 71 kts 341°
2026-04-13 16:53 49.48277 11.11780 1592 ft 72 kts 348°
2026-04-13 16:54 49.48826 11.11690 1500 ft 82 kts 355°
2026-04-13 16:54 49.49347 11.11432 1441 ft 77 kts 320°
2026-04-13 16:54 49.49572 11.10751 1250 ft 70 kts 277°
2026-04-13 16:54 49.49639 11.10066 1164 ft 62 kts 279°
2026-04-13 16:55 49.49706 11.09422 1077 ft 60 kts 279°
2026-04-13 16:55 49.49766 11.08818 1027 ft 55 kts 277°
2026-04-13 16:55 49.49745 11.08572 1024 ft 20 kts 193°
2026-04-13 16:55 49.49685 11.08525 1025 ft 7 kts 226°
2026-04-13 16:56 49.49683 11.08522 1025 ft 0 kts 229°
2026-04-13 16:56 49.49638 11.08432 1025 ft 20 kts 234°
2026-04-13 16:56 49.49616 11.08194 1026 ft 29 kts 278°
2026-04-13 16:57 49.49646 11.07895 1025 ft 32 kts 279°
2026-04-13 16:57 49.49589 11.07715 1024 ft 22 kts 272°
2026-04-13 16:57 49.49622 11.07418 1022 ft 34 kts 278°
2026-04-13 16:57 49.49603 11.07211 1021 ft 14 kts 180°
2026-04-13 16:58 49.49517 11.07182 1020 ft 22 kts 230°
2026-04-13 16:58 49.49417 11.06947 1016 ft 14 kts 201°
2026-04-13 16:58 49.49407 11.06953 1015 ft 0 kts 97°